TANYUSHA 1 (42911 NORAD) Tracking and Keplerian Element Data

This shows tracking and keplerian element data for the satellite.

Feedback or suggestion? Click here.




ElementValue
Catalog42911
NameTANYUSHA 1
Epoch Orbit8994
Epoch Day73.91335479
Epoch Year2019
RAAN59.8321
Inclination51.628
Eccentricity0.0004906
Argument of Perigee115.5356
Mean Anonmoly331.4014
Mean Motion15.80215012
Decay Rate0.00049992
L11 42911U 98067NA 19073.91335479 .00049992 00000-0 26254-3 0 9993
L22 42911 51.6280 59.8321 0004906 115.5356 331.4014 15.80215012 89945

Live tracking and technical data element details for TANYUSHA 1 (NORAD 42911). TANYUSHA 1 can be tracked NOW for your location showing map with azimuth and elevation plus other details from your city location.

Track the satellite on the map from your city or location and see movement details for azimuth, elevation, latitude, longitude, range, height, and movement on the map or in text.







IsCatalogInMostPopularTable: catalog: 42911, numindb: 207
Update: records affected: 1



GetName: 42911 TANYUSHA 1

Hit Count: updated at: Wed, 20 Mar 2019 04:46:59 GMT